SCP
0 0 0 0 0 0 0 0 -0 0 0 0 0 0 0 0 0 0 0 0 0 0 0 0 0 0 0
0 0 0 0 0 0 0 0 -0 0 0 0 0 0 0 0 0 0 0 0 0 0 0 0 0 0 0
0 0 0 0 0 0 0 0 0 0 0 0 0 0 0 0 0 0 0 0 0 0 0 0 0 0 0
0 0 0 0 0 0 0 0 0 0 0 0 0 0 0 0 0 0 0 0 0 0 0 0 0 0 0
0 0 0 0 0 0 0 0 0 0 0 0 0 0 0 0 0 0 0 0 0 0 0 0 0 0 0
0 0 0 0 0 0 0 0 0 0 0 0 0 0 0 0 0 0 0 0 0 0 0 0 0 0 0
0 0 0 0 0 0 0 0 0 0 0 0 0 0 0 0 0 0 0 0 0 0 0 0 0 0 0
0 0 0 0 0 0 0 0 0 0 0 0 0 0 0 0 0 0 0 0 0 0 0 0 0 0 0
0 0 0 0 0 0 0 0 0 0 0 0 0 0 0 0 0 0 0 0 0 0 0 0 0 0 0
0 0 0 0 0 0 0 0 0 0 0 0 0 0 0 0 0 0 0 0 0 0 0 0 0 0 0
0 0 0 0 0 0 0 0 0 0 0 0 0 0 0 0 0 0 0 0 0 0 0 0 0 0 0
0 0 0 0 0 0 0 0 0 0 0 0 0 0 0 0 0 0 0 0 0 0 0 0 0 0 0
0 0 0 0 0 0 0 0 0 0 0 0 0 0 0 0 0 0 0 0 0 0 0 0 0 0 0
0 0 0 0 0 0 0 0 0 0 0 0 0 0 0 0 0 0 0 0 0 0 0 0 0 0 0
0 0 0 0 0 0 0 0 0 0 0 0 0 0 0 0 0 0 0 0 0 0 0 0 0 0 0
0 0 0 0 0 0 0 0 0 0 0 0 0 0 0 0 0 0 0 0 0 0 0 0 0 0 0
Wind_Speed_500mb
16 14 13 10 9 7 6 15 18 17 17 19 17 15 21 18 16 13 11 11 11 12 14 16 16 14 10
20 19 18 16 13 10 9 10 16 18 21 20 24 17 16 18 19 18 16 15 14 15 15 16 16 15 13
23 24 24 23 20 18 15 14 16 20 23 20 21 23 22 20 18 20 23 22 21 20 19 19 19 19 17
25 27 29 30 28 25 23 20 20 20 22 26 26 27 31 30 26 22 24 25 25 25 26 25 25 25 23
28 26 30 33 35 34 30 28 26 26 26 26 28 30 32 34 36 37 29 29 29 30 31 31 31 31 30
37 34 33 33 36 39 37 33 32 31 31 30 31 31 33 36 40 40 38 33 33 34 36 37 38 37 36
42 44 42 37 36 39 39 40 37 33 32 33 35 35 36 37 40 42 43 42 41 41 42 44 44 44 44
44 47 48 45 39 37 39 40 42 39 37 35 37 39 38 36 36 39 43 45 47 47 49 50 51 51 50
45 46 47 48 46 45 39 38 40 44 44 42 43 40 39 36 38 39 41 46 51 51 55 54 53 55 57
44 45 46 48 47 47 47 45 41 40 41 44 48 49 43 38 41 47 48 49 53 55 58 56 57 58 58
38 44 45 45 46 49 50 50 49 50 44 45 45 50 49 46 46 48 54 57 61 62 62 63 61 63 63
40 39 48 46 47 48 50 49 49 53 52 49 51 48 48 50 50 49 57 65 66 66 70 70 72 70 69
46 38 42 47 46 48 47 44 43 46 51 56 54 57 57 54 55 46 58 63 65 66 74 80 76 72 76
42 33 32 37 43 47 48 46 44 43 41 44 44 46 54 53 63 69 81 66 56 50 60 76 65 67 71
27 26 27 30 35 39 40 40 41 43 42 42 42 44 48 60 62 69 88 79 63 68 64 55 33 38 54
14 18 21 20 21 24 30 32 34 36 39 40 41 47 48 50 57 62 69 82 76 69 70 66 70 74 56
Wind_Direction_500mb
259 257 256 270 289 277 234 209 198 207 207 206 227 221 240 245 229 227 224 222 227 233 235 243 256 273 293
267 266 267 265 275 272 251 239 233 233 229 212 229 225 238 237 236 239 242 245 251 257 261 268 266 271 279
269 268 265 266 265 266 265 255 255 252 253 255 251 248 240 254 239 253 243 247 251 258 265 268 271 274 277
277 271 268 266 263 262 262 263 260 263 262 258 257 257 253 255 265 251 251 248 253 263 270 272 274 274 274
278 277 272 271 266 263 263 264 264 263 264 267 263 263 264 264 268 272 275 271 262 264 269 274 276 276 277
275 274 276 274 271 268 266 266 266 267 267 269 272 273 272 272 272 272 276 275 267 267 269 272 275 275 275
275 274 272 276 276 275 273 268 266 269 272 271 270 271 277 278 277 276 278 276 272 271 271 271 271 273 274
279 275 274 272 275 275 275 275 270 269 271 272 271 270 273 278 278 278 279 279 276 274 273 272 271 270 272
280 278 273 273 270 272 276 278 275 270 271 276 273 265 270 278 278 276 277 279 279 279 279 278 276 274 272
281 277 277 273 272 271 273 275 275 276 279 282 281 275 268 268 277 278 278 280 281 281 282 282 280 276 274
295 274 273 274 271 272 272 274 277 279 275 277 278 281 275 268 271 278 279 278 281 284 285 285 283 279 279
285 282 264 268 270 272 274 280 287 287 286 276 274 278 276 276 274 284 289 285 282 286 287 287 284 282 279
268 273 264 262 270 276 282 287 288 293 293 285 279 278 273 271 272 284 299 291 286 283 282 283 284 284 282
256 257 262 264 268 272 276 280 285 286 290 291 290 287 274 278 282 272 268 293 293 295 291 284 279 285 288
257 259 260 263 269 276 282 281 280 284 287 288 293 291 283 278 281 277 262 273 279 287 290 281 265 271 286
263 259 259 264 274 280 281 284 287 291 294 294 293 288 288 286 280 281 272 276 278 278 281 279 281 277 277
Wind_Speed_850mb
16 14 13 10 9 7 6 15 18 17 17 19 17 15 21 18 16 13 11 11 11 12 14 16 16 14 10
20 19 18 16 13 10 9 10 16 18 21 20 24 17 16 18 19 18 16 15 14 15 15 16 16 15 13
23 24 24 23 20 18 15 14 16 20 23 20 21 23 22 20 18 20 23 22 21 20 19 19 19 19 17
25 27 29 30 28 25 23 20 20 20 22 26 26 27 31 30 26 22 24 25 25 25 26 25 25 25 23
28 26 30 33 35 34 30 28 26 26 26 26 28 30 32 34 36 37 29 29 29 30 31 31 31 31 30
37 34 33 33 36 39 37 33 32 31 31 30 31 31 33 36 40 40 38 33 33 34 36 37 38 37 36
42 44 42 37 36 39 39 40 37 33 32 33 35 35 36 37 40 42 43 42 41 41 42 44 44 44 44
44 47 48 45 39 37 39 40 42 39 37 35 37 39 38 36 36 39 43 45 47 47 49 50 51 51 50
45 46 47 48 46 45 39 38 40 44 44 42 43 40 39 36 38 39 41 46 51 51 55 54 53 55 57
44 45 46 48 47 47 47 45 41 40 41 44 48 49 43 38 41 47 48 49 53 55 58 56 57 58 58
38 44 45 45 46 49 50 50 49 50 44 45 45 50 49 46 46 48 54 57 61 62 62 63 61 63 63
40 39 48 46 47 48 50 49 49 53 52 49 51 48 48 50 50 49 57 65 66 66 70 70 72 70 69
46 38 42 47 46 48 47 44 43 46 51 56 54 57 57 54 55 46 58 63 65 66 74 80 76 72 76
42 33 32 37 43 47 48 46 44 43 41 44 44 46 54 53 63 69 81 66 56 50 60 76 65 67 71
27 26 27 30 35 39 40 40 41 43 42 42 42 44 48 60 62 69 88 79 63 68 64 55 33 38 54
14 18 21 20 21 24 30 32 34 36 39 40 41 47 48 50 57 62 69 82 76 69 70 66 70 74 56
Wind_Direction_850mb
259 257 256 270 289 277 234 209 198 207 207 206 227 221 240 245 229 227 224 222 227 233 235 243 256 273 293
267 266 267 265 275 272 251 239 233 233 229 212 229 225 238 237 236 239 242 245 251 257 261 268 266 271 279
269 268 265 266 265 266 265 255 255 252 253 255 251 248 240 254 239 253 243 247 251 258 265 268 271 274 277
277 271 268 266 263 262 262 263 260 263 262 258 257 257 253 255 265 251 251 248 253 263 270 272 274 274 274
278 277 272 271 266 263 263 264 264 263 264 267 263 263 264 264 268 272 275 271 262 264 269 274 276 276 277
275 274 276 274 271 268 266 266 266 267 267 269 272 273 272 272 272 272 276 275 267 267 269 272 275 275 275
275 274 272 276 276 275 273 268 266 269 272 271 270 271 277 278 277 276 278 276 272 271 271 271 271 273 274
279 275 274 272 275 275 275 275 270 269 271 272 271 270 273 278 278 278 279 279 276 274 273 272 271 270 272
280 278 273 273 270 272 276 278 275 270 271 276 273 265 270 278 278 276 277 279 279 279 279 278 276 274 272
281 277 277 273 272 271 273 275 275 276 279 282 281 275 268 268 277 278 278 280 281 281 282 282 280 276 274
295 274 273 274 271 272 272 274 277 279 275 277 278 281 275 268 271 278 279 278 281 284 285 285 283 279 279
285 282 264 268 270 272 274 280 287 287 286 276 274 278 276 276 274 284 289 285 282 286 287 287 284 282 279
268 273 264 262 270 276 282 287 288 293 293 285 279 278 273 271 272 284 299 291 286 283 282 283 284 284 282
256 257 262 264 268 272 276 280 285 286 290 291 290 287 274 278 282 272 268 293 293 295 291 284 279 285 288
257 259 260 263 269 276 282 281 280 284 287 288 293 291 283 278 281 277 262 273 279 287 290 281 265 271 286
263 259 259 264 274 280 281 284 287 291 294 294 293 288 288 286 280 281 272 276 278 278 281 279 281 277 277